Wind_Speed
47 51 47 50 57 57 53 50 45 41 37 35 32 29 28 27 26 26 25 27 30 33 33 31 32 27 32 34 31 26 24 27 21 24 25 26 21 27 28 28 23 21 15 15 21 14 16 20 17 14 9 6 9 15
44 46 52 54 54 57 54 52 48 44 41 37 33 30 29 28 27 26 27 26 27 30 26 30 37 36 36 29 27 34 32 15 19 16 23 22 20 21 24 31 30 34 34 19 18 8 8 2 4 9 9 12 14 14
52 46 47 48 53 57 55 55 51 47 43 39 35 31 30 30 28 27 27 25 25 26 29 31 29 26 36 34 33 29 32 32 28 21 23 19 24 20 28 32 30 31 29 33 33 34 30 25 17 13 23 21 19 17
53 48 50 49 47 50 52 53 52 49 43 40 36 33 31 30 28 28 27 24 23 23 28 22 20 27 32 34 39 38 33 33 34 35 27 26 25 23 28 28 28 29 30 34 37 35 29 26 25 20 15 18 22 20
56 53 51 52 44 47 47 49 49 49 44 40 37 33 32 31 29 27 26 24 22 23 15 17 22 26 22 29 29 36 38 37 35 35 38 41 38 35 35 33 37 37 38 34 35 30 32 29 23 19 14 12 11 15
50 50 47 49 51 44 47 47 47 47 44 41 37 33 32 31 29 27 25 25 23 24 26 24 21 20 22 30 33 35 37 43 46 42 42 42 41 39 37 51 56 50 45 40 39 34 36 33 29 27 26 24 21 18
62 61 51 48 48 49 49 49 47 47 45 42 39 34 33 32 30 28 24 23 24 24 23 15 16 21 21 24 30 41 42 41 40 41 45 46 46 47 54 63 58 54 52 49 44 42 46 39 34 33 29 26 26 24
52 54 55 49 45 53 48 48 43 44 45 44 38 35 34 32 31 27 26 23 20 19 20 10 9 12 12 15 20 28 38 41 41 45 50 50 50 50 62 64 56 55 52 50 48 51 56 44 38 34 29 31 33 29
46 55 55 50 50 54 48 46 44 40 41 42 37 35 33 33 29 26 26 24 23 22 14 15 17 13 13 17 17 16 27 34 40 46 48 45 52 54 66 63 59 55 48 41 39 37 39 51 50 43 38 34 29 24
39 39 50 50 57 49 48 50 45 44 42 42 37 34 33 31 28 25 22 21 20 24 26 25 17 15 12 12 11 10 10 16 20 28 31 45 60 59 59 58 56 51 44 36 38 35 32 36 40 42 40 35 35 34
30 37 45 52 60 55 53 52 49 46 42 42 38 32 27 27 23 20 14 13 14 14 20 25 24 22 18 16 14 9 7 6 8 10 17 19 36 29 33 39 42 43 42 43 44 45 39 37 37 36 34 31 33 32
34 33 43 41 45 56 56 54 52 50 47 44 40 32 26 22 12 13 14 13 12 15 13 13 19 23 23 22 16 9 9 7 8 6 9 10 16 17 16 18 20 21 23 26 33 40 43 43 46 47 46 43 39 35
35 36 41 39 56 59 58 54 52 48 46 43 36 30 18 16 14 16 20 18 18 15 13 17 18 16 20 21 13 10 8 10 8 9 11 19 17 12 15 20 24 29 35 34 33 33 34 39 41 44 43 41 37 38
42 42 37 51 59 59 58 56 54 50 45 39 24 22 17 12 16 24 21 22 19 17 17 17 17 13 14 16 10 7 10 7 7 9 11 16 21 21 21 23 24 27 31 33 34 29 27 29 33 36 43 42 39 38
55 56 54 56 56 61 57 54 51 46 44 26 17 14 22 18 14 19 25 25 19 18 17 20 17 13 17 10 9 8 6 8 9 14 22 23 25 27 30 34 36 37 39 40 37 33 29 23 21 28 33 34 35 32
38 54 49 52 59 59 53 51 48 45 46 21 15 18 25 27 23 17 18 21 20 21 23 22 18 10 12 7 10 10 7 12 18 17 14 13 16 18 20 22 20 22 20 22 26 23 23 23 18 14 16 21 25 28
39 52 52 57 60 55 55 54 51 48 34 23 24 25 21 22 25 23 19 18 19 21 27 16 12 10 9 9 12 17 30 29 19 19 20 22 22 20 27 32 33 35 27 20 17 16 13 17 20 17 18 22 23 24
36 51 55 65 65 59 57 54 53 36 33 34 24 27 21 17 19 23 21 21 21 21 23 22 15 17 9 15 23 23 19 16 18 21 19 19 17 14 20 25 26 26 22 25 28 15 14 14 14 17 23 23 27 30
45 45 65 63 62 62 59 55 51 23 31 36 27 24 28 22 19 20 20 20 20 21 23 25 15 18 25 29 26 22 22 24 25 26 28 30 34 36 37 35 30 27 26 21 26 25 17 11 13 17 18 23 24 27
41 50 57 57 64 63 44 34 55 34 21 26 31 26 24 24 25 23 22 23 23 25 28 29 29 22 23 20 20 21 23 24 26 29 31 29 27 27 25 27 27 24 23 22 25 26 21 21 14 13 17 16 15 19
43 55 68 68 70 50 29 33 42 33 16 26 29 28 25 24 25 25 25 26 29 32 29 25 19 19 20 20 21 23 24 28 31 33 29 26 22 23 26 28 29 28 22 19 20 22 22 26 22 22 15 14 13 12
60 70 72 71 69 44 22 27 38 29 28 20 27 28 27 28 26 26 26 30 34 29 23 19 16 17 20 22 23 26 27 30 29 26 22 22 20 20 21 23 23 24 26 25 23 19 21 17 16 15 20 18 9 7
51 67 68 47 31 20 16 23 31 32 21 25 22 25 26 23 24 23 27 32 31 20 16 19 18 22 22 21 24 24 24 24 25 22 21 19 16 16 15 16 17 16 16 18 22 23 24 20 16 15 13 13 20 21
61 55 38 34 25 15 24 23 23 29 25 26 28 23 22 25 24 27 32 33 23 16 19 20 24 24 22 22 21 20 22 23 22 20 18 15 13 13 12 12 13 14 13 12 14 15 16 22 23 21 19 15 11 9
32 22 10 18 23 26 18 26 25 23 19 26 25 23 20 20 22 27 31 32 20 22 26 24 22 22 23 22 21 19 19 19 19 19 17 13 11 11 11 11 12 15 14 12 14 14 16 18 20 20 20 20 22 15
18 10 20 20 30 28 30 28 25 31 26 24 23 23 21 20 19 18 30 23 19 20 19 18 18 20 20 19 17 17 17 19 20 18 17 15 14 13 13 13 12 12 19 19 17 16 17 19 21 22 22 22 21 26
10 12 29 30 28 32 33 34 29 23 28 25 30 26 19 15 14 26 24 16 16 15 14 15 17 17 15 13 13 15 17 17 16 15 14 13 11 12 12 13 13 15 19 21 22 21 19 19 21 24 25 24 22 19
23 21 23 29 33 34 30 29 28 28 24 22 25 25 14 12 14 14 10 11 9 8 9 12 15 15 14 14 14 14 15 15 14 12 10 8 9 10 13 17 19 20 20 20 21 22 24 23 21 21 22 25 26 26
27 30 30 27 28 29 29 29 27 27 26 25 23 18 21 21 18 18 18 17 15 14 14 14 14 15 15 15 15 15 16 15 15 14 14 13 12 11 19 20 23 26 29 30 30 30 30 29 25 23 21 21 22 25
32 25 25 28 31 31 29 27 28 24 25 21 21 20 19 16 18 21 19 17 14 12 13 17 19 18 16 19 18 18 17 17 18 19 19 19 17 15 15 17 19 21 23 25 27 29 30 31 32 32 28 26 23 22
28 26 21 23 24 24 23 19 19 19 18 21 24 25 23 23 22 22 22 21 21 21 20 17 18 21 22 23 22 21 21 21 20 21 21 20 20 20 20 22 23 25 26 27 27 27 28 30 32 32 33 32 30 30
39 32 26 27 24 24 23 27 23 21 24 28 28 26 25 28 32 32 23 20 22 24 22 21 22 22 22 24 26 29 27 24 24 21 22 23 22 23 25 26 28 28 28 29 29 30 30 30 31 32 34 35 34 32
31 37 41 37 32 28 27 26 26 28 29 30 30 26 27 30 34 35 33 27 23 20 21 24 25 24 25 29 31 32 32 32 28 26 27 27 27 28 29 31 32 32 32 31 31 32 32 35 37 36 34 33 34 35
Wind_Direction
242 231 240 238 231 230 231 233 235 231 231 232 232 232 235 237 239 241 246 246 241 240 240 241 236 234 235 234 237 240 241 238 238 236 238 240 245 246 251 252 251 252 248 240 233 233 268 283 277 257 270 293 310 315
232 237 239 240 235 228 227 226 225 226 227 228 228 230 233 236 238 241 241 243 245 242 242 240 237 235 236 236 241 239 235 225 225 229 236 242 240 242 248 245 246 240 244 251 239 256 247 328 348 332 318 290 298 304
228 229 230 236 235 233 228 222 218 219 222 225 225 224 229 233 235 239 243 242 242 246 251 248 241 240 234 234 232 233 233 235 232 239 239 237 237 245 245 251 256 254 253 253 258 255 257 277 291 306 303 301 285 288
219 228 227 231 234 231 228 226 220 213 217 221 221 221 225 228 232 237 240 241 242 245 245 246 246 235 232 235 233 234 234 234 233 228 233 236 240 248 252 253 253 253 252 253 258 259 266 272 279 283 288 294 274 273
230 230 219 222 225 223 223 225 223 216 211 217 220 221 222 225 228 232 238 240 240 232 244 249 253 242 236 231 231 232 236 236 231 233 238 239 242 246 252 254 250 249 251 251 257 262 266 262 258 265 264 273 288 275
237 214 216 223 231 230 220 221 221 215 208 213 218 220 222 224 227 228 233 234 239 242 243 249 251 243 236 234 229 226 234 236 234 235 240 246 247 247 255 256 255 256 257 259 262 262 263 263 262 264 262 261 266 271
223 228 227 221 235 231 223 215 216 216 210 211 213 216 220 222 225 224 224 233 235 239 236 247 253 245 242 237 235 232 233 241 237 241 245 247 255 254 253 255 257 258 262 261 263 262 263 266 266 264 262 263 266 266
212 219 225 229 238 229 224 209 210 215 215 211 206 210 216 218 222 224 228 230 232 232 226 221 212 212 232 241 243 238 234 234 238 241 247 251 255 255 258 256 258 260 264 267 265 264 263 268 268 264 267 264 264 265
229 223 229 233 237 227 216 204 207 208 216 208 201 204 211 215 216 218 223 224 228 220 211 223 223 220 235 240 241 237 236 238 243 244 245 250 252 250 255 263 266 270 272 277 282 282 264 259 260 263 264 260 259 258
243 227 224 230 228 222 213 204 204 204 215 206 197 199 207 209 211 212 216 220 226 226 227 235 232 221 227 222 222 227 237 228 246 257 255 252 256 262 266 270 274 276 280 281 285 280 280 272 263 262 264 262 260 258
228 227 216 225 227 220 205 201 197 201 212 203 194 193 199 201 201 201 203 207 217 228 239 240 232 228 219 204 203 219 227 236 255 251 238 259 265 273 276 278 279 276 272 270 276 276 268 260 255 254 251 246 249 249
214 222 218 220 217 214 198 196 196 206 206 199 191 186 183 181 185 201 199 209 218 219 222 217 223 220 212 210 210 223 233 241 244 232 231 258 276 278 281 275 269 268 267 269 272 263 259 257 250 248 244 243 243 246
211 215 215 213 217 207 194 191 198 201 196 188 176 183 176 184 197 203 196 194 205 213 217 219 209 199 203 208 211 203 217 233 249 230 242 254 267 261 266 271 271 276 280 281 285 281 275 262 255 248 245 244 243 244
191 190 196 215 211 191 186 193 197 197 192 180 167 175 186 189 210 217 212 218 225 221 222 208 196 183 178 180 182 186 214 234 245 236 254 279 268 265 259 268 271 273 286 288 292 287 289 277 262 251 242 242 248 255
174 196 209 195 187 182 188 192 195 190 188 173 167 184 195 200 201 199 209 216 215 209 199 185 185 181 175 186 188 195 200 230 238 247 251 258 269 276 284 288 292 296 296 297 299 301 283 290 279 257 247 241 244 249
173 190 197 193 181 184 186 187 187 191 194 171 178 194 201 205 202 195 194 202 203 193 185 181 184 195 195 196 194 196 210 226 249 255 270 289 304 308 316 303 306 317 320 319 308 303 290 286 278 268 245 244 249 250
167 185 183 178 181 185 186 182 184 193 190 186 200 193 192 198 210 209 205 196 194 194 192 187 193 196 192 205 204 214 234 250 256 264 274 287 297 296 300 304 305 310 308 324 319 298 282 272 272 273 270 256 254 255
193 189 184 178 181 179 178 187 190 192 196 196 195 195 189 190 195 196 194 197 195 198 206 209 211 204 196 225 243 260 266 266 267 276 292 292 286 309 315 321 327 324 318 313 312 305 279 269 264 264 266 270 257 253
187 183 187 184 186 178 175 187 194 195 202 203 191 189 196 194 188 186 191 200 204 209 214 217 227 243 250 257 267 273 271 276 279 278 277 279 283 288 292 297 301 313 320 310 298 295 289 271 262 259 261 267 259 249
190 188 187 185 180 174 171 187 197 202 207 199 196 197 200 208 214 214 216 219 219 219 222 232 240 258 268 273 281 287 284 281 280 276 276 281 286 288 290 287 284 286 299 312 307 290 295 288 274 256 243 260 277 251
191 188 185 182 178 175 181 189 191 201 175 186 193 202 205 207 211 213 216 220 224 232 241 250 265 275 282 281 274 273 275 274 275 281 296 299 294 290 280 278 279 275 277 297 301 307 300 298 297 275 251 234 245 279
176 176 177 180 181 177 181 184 191 194 196 195 193 200 208 215 219 221 227 234 240 247 253 261 271 272 264 263 265 266 269 275 283 291 295 295 299 298 292 290 289 284 278 274 274 291 298 311 312 295 260 248 254 263
180 178 176 166 173 176 177 178 185 187 180 188 186 195 207 213 216 221 230 243 250 251 261 269 262 261 265 266 267 272 278 281 281 284 289 298 300 295 299 294 292 291 283 276 274 267 273 289 300 312 315 289 266 261
182 169 172 172 181 170 161 169 180 179 181 185 194 200 212 218 225 229 241 250 252 259 260 260 259 266 271 272 276 274 271 272 273 273 279 284 291 300 308 309 304 297 290 277 275 278 268 273 286 298 302 309 307 265
166 163 165 176 187 188 179 191 193 185 186 187 193 198 205 210 221 233 247 252 258 258 257 259 260 267 272 272 272 272 271 268 261 261 268 279 291 298 304 309 308 301 300 291 284 283 282 283 279 277 283 290 290 298
182 177 191 193 194 196 203 204 204 204 199 194 200 208 212 215 229 244 255 268 261 253 251 253 257 265 270 270 268 262 258 252 252 256 264 270 278 284 287 286 283 282 290 293 290 283 279 281 284 284 282 283 275 276
180 184 197 203 199 207 208 215 220 215 210 212 219 220 221 223 239 249 253 251 246 248 249 254 261 266 269 266 254 248 247 245 241 243 250 260 274 282 288 291 287 281 280 285 288 289 286 282 279 280 282 284 286 273
217 215 211 208 212 218 221 221 220 212 214 224 222 219 219 216 230 234 251 229 237 236 243 265 273 267 260 257 255 249 246 244 241 241 242 244 255 271 284 288 292 296 297 296 297 298 295 287 283 282 280 279 279 284
225 229 227 225 221 219 226 229 229 232 232 236 228 232 241 243 249 252 254 261 265 266 266 265 256 256 259 258 256 252 251 252 252 252 255 254 252 259 270 280 286 287 289 291 294 295 293 293 293 280 275 281 281 274
224 227 228 229 228 231 239 242 239 238 233 238 231 246 246 241 250 257 260 266 272 273 263 255 255 259 259 259 256 253 253 254 261 269 272 273 277 278 280 283 285 287 290 293 293 293 293 292 291 288 282 268 267 272
221 215 217 221 222 225 226 231 231 233 235 225 230 246 246 248 253 257 266 277 277 271 270 277 271 258 255 253 253 254 253 258 265 269 277 282 290 296 298 298 299 301 302 300 296 293 291 291 290 288 285 279 268 262
223 218 216 214 216 220 233 242 242 245 245 242 244 250 253 259 263 263 261 265 269 274 282 285 276 263 255 249 246 250 256 259 262 267 266 271 280 290 295 298 299 298 298 297 297 300 300 299 299 297 289 282 275 265
228 229 231 234 237 241 242 247 249 248 250 254 257 260 255 258 265 264 261 262 270 278 278 280 276 264 251 246 247 251 254 261 269 274 274 271 274 282 290 300 300 298 298 298 298 299 299 300 300 301 298 287 276 268
Height
2969 2975 2980 2986 2992 2999 3007 3014 3020 3025 3029 3033 3038 3042 3045 3048 3049 3053 3056 3055 3058 3059 3061 3064 3070 3073 3076 3080 3083 3085 3089 3090 3093 3095 3097 3098 3098 3099 3098 3099 3099 3102 3102 3100 3103 3104 3098 3096 3095 3096 3096 3094 3094 3093
2957 2963 2968 2973 2979 2985 2992 2999 3007 3014 3019 3023 3028 3033 3037 3041 3043 3047 3049 3048 3050 3053 3055 3056 3060 3065 3069 3073 3076 3077 3081 3084 3087 3086 3087 3090 3090 3090 3090 3090 3093 3094 3095 3097 3096 3094 3093 3093 3094 3094 3094 3093 3091 3090
2941 2949 2955 2961 2967 2974 2979 2985 2992 3000 3007 3013 3020 3022 3028 3031 3034 3040 3043 3042 3044 3046 3049 3049 3052 3056 3060 3064 3068 3071 3073 3076 3079 3081 3082 3083 3083 3084 3083 3084 3086 3085 3088 3087 3089 3088 3090 3090 3090 3091 3090 3089 3088 3087
2926 2934 2943 2950 2955 2962 2969 2975 2980 2987 2996 3002 3009 3014 3019 3021 3025 3032 3035 3036 3038 3041 3040 3042 3043 3045 3050 3054 3058 3062 3066 3069 3071 3073 3073 3073 3075 3077 3077 3078 3078 3080 3080 3077 3077 3081 3085 3086 3085 3084 3083 3082 3081 3081
2914 2921 2927 2937 2944 2951 2959 2965 2971 2978 2985 2993 2999 3006 3010 3013 3017 3023 3027 3029 3031 3036 3032 3033 3036 3040 3043 3046 3049 3053 3056 3061 3063 3064 3064 3065 3066 3070 3069 3069 3064 3070 3070 3070 3069 3077 3075 3078 3078 3078 3077 3077 3076 3075
2902 2910 2916 2925 2933 2942 2948 2956 2963 2970 2975 2983 2991 2997 3002 3006 3010 3016 3019 3022 3024 3026 3028 3029 3031 3032 3035 3038 3040 3045 3047 3050 3054 3053 3055 3055 3058 3063 3058 3050 3052 3060 3063 3064 3064 3068 3066 3067 3069 3071 3070 3071 3070 3070
2889 2898 2906 2913 2922 2932 2940 2947 2954 2962 2967 2973 2981 2989 2994 2999 3003 3008 3010 3015 3016 3019 3021 3024 3025 3027 3028 3030 3032 3036 3038 3040 3044 3044 3042 3045 3050 3053 3044 3033 3038 3047 3052 3054 3056 3057 3053 3059 3060 3061 3063 3063 3063 3064
2876 2885 2894 2903 2911 2922 2933 2939 2946 2953 2960 2965 2972 2979 2986 2991 2996 3000 3004 3008 3010 3012 3016 3018 3019 3022 3022 3024 3024 3027 3029 3033 3033 3033 3032 3035 3039 3039 3024 3009 3026 3034 3039 3041 3044 3047 3044 3049 3048 3052 3053 3054 3054 3056
2865 2875 2883 2892 2901 2914 2923 2932 2940 2946 2953 2958 2964 2971 2978 2984 2989 2993 2997 3001 3003 3010 3008 3009 3012 3016 3016 3017 3018 3020 3023 3025 3025 3023 3023 3027 3022 3010 3003 3013 3019 3025 3029 3029 3031 3030 3031 3031 3035 3038 3042 3044 3045 3048
2858 2865 2874 2882 2894 2904 2915 2923 2933 2939 2944 2951 2959 2965 2972 2977 2982 2988 2990 2994 2996 2998 2999 3001 3005 3010 3012 3011 3013 3017 3017 3019 3015 3014 3017 3011 2995 3000 3006 3007 3009 3014 3019 3019 3015 3015 3019 3019 3024 3028 3030 3033 3033 3035
2848 2856 2865 2873 2884 2896 2907 2915 2923 2932 2937 2945 2951 2960 2967 2973 2977 2983 2984 2987 2990 2990 2990 2993 2998 3000 3004 3006 3009 3013 3013 3012 3009 3006 3007 2998 2989 2994 2997 2998 2999 3001 3003 3004 3004 3002 3004 3004 3007 3011 3015 3018 3020 3021
2837 2845 2854 2863 2875 2887 2898 2906 2914 2921 2930 2939 2947 2955 2962 2969 2972 2979 2975 2980 2980 2981 2980 2984 2988 2992 2997 3001 3004 3006 3010 3009 3003 3002 3001 2990 2989 2991 2992 2991 2991 2990 2990 2991 2990 2989 2989 2990 2993 2994 2997 3001 3005 3010
2826 2836 2846 2855 2866 2878 2889 2901 2908 2917 2925 2934 2942 2950 2957 2962 2964 2964 2960 2965 2968 2970 2973 2976 2982 2987 2992 2995 2999 3000 3003 3002 2999 2996 2989 2984 2988 2989 2988 2987 2986 2984 2981 2981 2980 2978 2977 2976 2978 2981 2986 2990 2994 2996
2815 2828 2840 2848 2860 2871 2883 2892 2901 2910 2921 2929 2936 2944 2950 2950 2949 2949 2955 2961 2964 2966 2969 2973 2979 2984 2986 2990 2993 2992 2996 2996 2992 2985 2981 2983 2983 2982 2981 2978 2977 2975 2973 2972 2970 2970 2969 2966 2967 2969 2973 2978 2981 2984
2815 2823 2833 2845 2855 2867 2877 2888 2898 2909 2917 2924 2931 2935 2936 2939 2944 2946 2949 2954 2959 2961 2965 2971 2978 2981 2983 2987 2983 2985 2987 2985 2981 2976 2977 2979 2978 2977 2975 2973 2970 2967 2964 2963 2962 2961 2960 2960 2958 2960 2963 2966 2970 2974
2816 2826 2834 2844 2854 2863 2876 2887 2898 2907 2913 2918 2923 2926 2930 2937 2941 2943 2945 2949 2954 2958 2964 2969 2973 2978 2976 2975 2977 2976 2979 2974 2972 2974 2973 2973 2972 2971 2969 2968 2965 2963 2959 2957 2955 2953 2953 2953 2954 2954 2955 2957 2961 2963
2815 2822 2831 2844 2853 2864 2874 2885 2894 2902 2910 2912 2916 2922 2928 2932 2937 2939 2942 2946 2950 2953 2957 2963 2965 2965 2966 2969 2969 2968 2965 2967 2971 2968 2966 2966 2966 2965 2963 2961 2958 2957 2954 2951 2950 2948 2947 2947 2947 2947 2949 2950 2952 2955
2811 2821 2829 2835 2846 2861 2873 2882 2889 2898 2901 2905 2913 2920 2924 2928 2931 2934 2939 2942 2946 2949 2953 2956 2958 2957 2960 2960 2957 2957 2962 2963 2963 2961 2960 2960 2960 2959 2957 2955 2954 2952 2949 2946 2945 2944 2943 2941 2940 2939 2941 2942 2943 2944
2809 2815 2822 2834 2846 2858 2870 2879 2889 2893 2896 2903 2910 2915 2920 2925 2929 2933 2937 2939 2943 2946 2948 2950 2952 2951 2952 2951 2951 2953 2956 2956 2955 2955 2954 2954 2953 2952 2951 2949 2948 2947 2945 2942 2941 2939 2938 2935 2934 2935 2935 2935 2934 2934
2808 2815 2828 2838 2847 2855 2865 2874 2883 2889 2892 2898 2906 2911 2916 2922 2926 2930 2932 2935 2937 2938 2939 2941 2942 2944 2945 2946 2947 2949 2949 2948 2947 2945 2945 2947 2946 2943 2942 2941 2940 2941 2940 2937 2937 2934 2932 2930 2929 2928 2928 2929 2927 2926
2806 2814 2823 2832 2842 2854 2861 2867 2877 2886 2889 2894 2900 2907 2913 2917 2920 2922 2926 2928 2928 2928 2932 2935 2938 2941 2941 2940 2940 2940 2939 2938 2936 2936 2937 2937 2937 2935 2934 2933 2932 2933 2934 2933 2932 2930 2927 2924 2922 2922 2921 2921 2921 2922
2807 2816 2823 2834 2843 2851 2859 2863 2872 2879 2888 2891 2897 2903 2907 2911 2914 2917 2920 2920 2918 2921 2926 2929 2933 2934 2933 2933 2932 2931 2931 2930 2930 2931 2931 2930 2929 2928 2926 2925 2924 2924 2924 2925 2926 2925 2924 2921 2919 2917 2916 2916 2915 2915
2815 2823 2829 2835 2845 2851 2858 2863 2869 2875 2883 2889 2894 2898 2902 2906 2909 2912 2912 2909 2909 2917 2921 2922 2925 2925 2925 2925 2923 2924 2924 2924 2923 2924 2924 2924 2923 2921 2921 2919 2918 2917 2917 2916 2916 2917 2918 2917 2916 2914 2913 2911 2910 2910
2818 2825 2832 2838 2843 2849 2855 2861 2867 2872 2877 2883 2888 2893 2896 2900 2902 2903 2901 2900 2906 2913 2913 2915 2916 2916 2916 2916 2916 2917 2916 2915 2916 2917 2918 2919 2918 2916 2915 2914 2913 2911 2910 2911 2910 2910 2910 2910 2911 2910 2909 2908 2907 2906
2823 2830 2834 2837 2841 2849 2854 2859 2864 2869 2874 2878 2884 2887 2890 2894 2895 2895 2893 2895 2904 2905 2905 2905 2907 2907 2908 2909 2909 2909 2909 2909 2910 2911 2912 2913 2913 2912 2911 2910 2909 2906 2907 2907 2907 2907 2906 2905 2904 2904 2905 2904 2904 2903
2826 2829 2835 2835 2841 2849 2852 2858 2862 2866 2871 2876 2879 2882 2884 2887 2889 2887 2885 2891 2895 2896 2897 2898 2899 2900 2900 2900 2900 2901 2902 2902 2903 2904 2906 2907 2907 2907 2907 2907 2906 2905 2902 2901 2902 2903 2903 2901 2900 2898 2897 2897 2897 2899
2825 2828 2831 2835 2841 2845 2849 2854 2860 2865 2868 2871 2871 2875 2880 2881 2879 2878 2883 2887 2889 2891 2891 2892 2893 2893 2893 2893 2893 2894 2894 2896 2897 2898 2899 2900 2901 2900 2900 2899 2899 2899 2898 2897 2896 2895 2895 2895 2894 2893 2892 2891 2891 2891
2823 2828 2832 2835 2838 2842 2846 2850 2854 2859 2862 2864 2867 2870 2873 2873 2874 2877 2880 2883 2885 2886 2886 2887 2887 2887 2887 2887 2888 2889 2890 2890 2891 2892 2893 2894 2895 2895 2894 2893 2892 2892 2891 2891 2890 2889 2888 2889 2888 2887 2886 2885 2884 2885
2820 2824 2829 2832 2836 2839 2842 2846 2850 2855 2859 2861 2863 2865 2868 2870 2872 2873 2875 2877 2879 2880 2880 2880 2880 2880 2881 2881 2882 2883 2883 2884 2884 2886 2887 2889 2890 2891 2888 2887 2886 2885 2883 2882 2882 2881 2881 2880 2880 2881 2881 2880 2879 2878
2817 2821 2825 2828 2832 2835 2840 2844 2848 2851 2855 2858 2860 2861 2863 2865 2866 2866 2868 2869 2872 2873 2873 2874 2874 2874 2875 2875 2877 2877 2877 2877 2877 2879 2879 2880 2881 2882 2882 2881 2880 2878 2877 2876 2875 2875 2874 2872 2872 2872 2872 2873 2873 2872
2815 2819 2822 2824 2827 2832 2836 2840 2843 2847 2850 2852 2854 2855 2856 2858 2859 2860 2861 2862 2863 2863 2864 2866 2867 2867 2866 2867 2868 2869 2870 2870 2871 2871 2871 2871 2872 2872 2871 2871 2870 2869 2869 2868 2868 2867 2866 2865 2863 2862 2861 2862 2864 2864
2812 2814 2818 2821 2825 2830 2833 2836 2839 2842 2844 2844 2845 2847 2849 2850 2849 2850 2854 2855 2854 2855 2857 2857 2857 2858 2859 2859 2859 2859 2860 2862 2863 2864 2864 2864 2864 2864 2863 2862 2861 2860 2859 2858 2858 2857 2857 2856 2855 2853 2851 2851 2852 2854
2805 2808 2813 2817 2821 2824 2827 2831 2832 2833 2834 2834 2836 2839 2841 2841 2837 2840 2841 2845 2848 2848 2848 2848 2847 2848 2848 2848 2848 2849 2848 2849 2852 2853 2854 2854 2854 2854 2854 2853 2852 2850 2849 2848 2847 2847 2847 2845 2844 2843 2841 2839 2839 2841